Preston, Minnesota, United States (55965)
Lat: 43.67N, Lon: 92.08W
Wx Zone: MNZ095
Local Info
Past Weather Observations for Thursday, April 23, 2015

NOTE: This archive is for the closest National Weather Service station to Preston. Information may differ from the station used for current weather conditions.

Click here for Long-term Archive

Time Weather Temperature Dewpoint Humidity Pressure Winds Precip Visibility
23:55
Clear
32°F / 0°C 16°F / -9°C 51% 29.98 in
(1015 mb)
NW 10.4 mph
(NW 17 kph)
- 10SM
23:34
Clear
32°F / 0°C 16°F / -9°C 51% 29.98 in
(1015 mb)
NW 10.4 mph
(NW 17 kph)
- 10SM
23:15
Clear
32°F / 0°C 16°F / -9°C 51% 29.98 in
(1015 mb)
NW 9.2 mph
(NW 15 kph)
- 10SM
22:55
Clear
34°F / 1°C 16°F / -9°C 48% 29.95 in
(1014 mb)
NW 10.4 mph
(NW 17 kph)
- 10SM
22:34
Clear
34°F / 1°C 16°F / -9°C 48% 29.95 in
(1014 mb)
NW 10.4 mph
(NW 17 kph)
- 10SM
22:15
Clear
32°F / 0°C 16°F / -9°C 51% 29.95 in
(1014 mb)
NW 9.2 mph
(NW 15 kph)
- 10SM
21:54
Clear
34°F / 1°C 16°F / -9°C 48% 29.95 in
(1014 mb)
NW 9.2 mph
(NW 15 kph)
- 10SM
21:35
Clear
34°F / 1°C 16°F / -9°C 48% 29.95 in
(1014 mb)
NW 9.2 mph
(NW 15 kph)
- 10SM
21:15
Clear
34°F / 1°C 16°F / -9°C 48% 29.95 in
(1014 mb)
NW 9.2 mph
(NW 15 kph)
- 10SM
20:55
Clear
34°F / 1°C 16°F / -9°C 48% 29.95 in
(1014 mb)
NW 8.1 mph
(NW 13 kph)
- 10SM
20:35
Clear
36°F / 2°C 16°F / -9°C 44% 29.95 in
(1014 mb)
NW 9.2 mph
(NW 15 kph)
- 10SM
20:15
Clear
37°F / 3°C 14°F / -10°C 38% 29.92 in
(1013 mb)
NW 9.2 mph
(NW 15 kph)
- 10SM
19:54
Clear
37°F / 3°C 14°F / -10°C 38% 29.92 in
(1013 mb)
NW 10.4 mph
(NW 17 kph)
- 10SM
19:35
Clear
39°F / 4°C 14°F / -10°C 36% 29.92 in
(1013 mb)
NW 8.1 mph
(NW 13 kph)
- 10SM
19:15
Clear
39°F / 4°C 12°F / -11°C 33% 29.92 in
(1013 mb)
NW 9.2 mph
(NW 15 kph)
- 10SM
18:55
Clear
41°F / 5°C 12°F / -11°C 31% 29.92 in
(1013 mb)
NW 12.7 mph
(NW 20 kph)
- 10SM
18:34
Clear
43°F / 6°C 10°F / -12°C 26% 29.92 in
(1013 mb)
NNW 11.5 mph
(NNW 19 kph)
- 10SM
18:15
Clear
43°F / 6°C 12°F / -11°C 29% 29.89 in
(1012 mb)
NW 10.4 mph
(NW 17 kph)
- 10SM
17:55
Clear
45°F / 7°C 10°F / -12°C 25% 29.89 in
(1012 mb)
NNW 16.1 mph
(NNW 26 kph)
- 10SM
17:35
Clear
45°F / 7°C 12°F / -11°C 27% 29.89 in
(1012 mb)
NNW 19.6 mph
(NNW 32 kph)
- 10SM
17:15
Clear
45°F / 7°C 12°F / -11°C 27% 29.89 in
(1012 mb)
NW 20.7 mph
(NW 33 kph)
- 10SM
16:54
Clear
46°F / 8°C 12°F / -11°C 25% 29.89 in
(1012 mb)
NNW 18.4 mph
(NNW 30 kph)
- 10SM
16:35
Clear
46°F / 8°C 12°F / -11°C 25% 29.89 in
(1012 mb)
NW 18.4 mph
(NW 30 kph)
- 10SM
16:15
Clear
46°F / 8°C 14°F / -10°C 27% 29.89 in
(1012 mb)
NW 21.9 mph
(NW 35 kph)
- 10SM
15:55
Clear
46°F / 8°C 16°F / -9°C 29% 29.89 in
(1012 mb)
NW 25.3 mph
(NW 41 kph)
- 10SM
15:34
Clear
46°F / 8°C 14°F / -10°C 27% 29.89 in
(1012 mb)
NW 24.2 mph
(NW 39 kph)
- 10SM
15:15
Partly Cloudy
46°F / 8°C 18°F / -8°C 32% 29.89 in
(1012 mb)
NW 19.6 mph
(NW 32 kph)
- 10SM
14:55
Mostly Cloudy
46°F / 8°C 19°F / -7°C 34% 29.89 in
(1012 mb)
NW 25.3 mph
(NW 41 kph)
- 10SM
14:35
Mostly Cloudy
45°F / 7°C 19°F / -7°C 37% 29.86 in
(1011 mb)
NNW 18.4 mph
(NNW 30 kph)
- 10SM
14:14
Mostly Cloudy
46°F / 8°C 21°F / -6°C 37% 29.86 in
(1011 mb)
NW 17.3 mph
(NW 28 kph)
- 10SM
13:55
Mostly Cloudy
46°F / 8°C 23°F / -5°C 40% 29.86 in
(1011 mb)
NW 25.3 mph
(NW 41 kph)
- 10SM
13:35
Partly Cloudy
46°F / 8°C 23°F / -5°C 40% 29.89 in
(1012 mb)
NW 21.9 mph
(NW 35 kph)
- 10SM
13:14
Partly Cloudy
45°F / 7°C 21°F / -6°C 39% 29.86 in
(1011 mb)
NNW 19.6 mph
(NNW 32 kph)
- 10SM
12:55
Partly Cloudy
45°F / 7°C 21°F / -6°C 39% 29.89 in
(1012 mb)
NNW 19.6 mph
(NNW 32 kph)
- 10SM
12:35
Partly Cloudy
43°F / 6°C 21°F / -6°C 42% 29.89 in
(1012 mb)
NW 20.7 mph
(NW 33 kph)
- 10SM
12:14
Partly Cloudy
43°F / 6°C 23°F / -5°C 46% 29.86 in
(1011 mb)
NW 24.2 mph
(NW 39 kph)
- 10SM
11:55
Partly Cloudy
41°F / 5°C 23°F / -5°C 49% 29.86 in
(1011 mb)
NW 20.7 mph
(NW 33 kph)
- 10SM
11:34
Partly Cloudy
41°F / 5°C 23°F / -5°C 49% 29.86 in
(1011 mb)
NNW 21.9 mph
(NNW 35 kph)
- 10SM
11:15
Partly Cloudy
41°F / 5°C 23°F / -5°C 49% 29.89 in
(1012 mb)
NW 17.3 mph
(NW 28 kph)
- 10SM
10:55
Partly Cloudy
41°F / 5°C 23°F / -5°C 49% 29.86 in
(1011 mb)
NNW 19.6 mph
(NNW 32 kph)
- 10SM
10:34
Partly Cloudy
39°F / 4°C 25°F / -4°C 56% 29.86 in
(1011 mb)
NW 19.6 mph
(NW 32 kph)
- 10SM
10:15
Partly Cloudy
39°F / 4°C 25°F / -4°C 56% 29.86 in
(1011 mb)
NW 19.6 mph
(NW 32 kph)
- 10SM
09:54
Partly Cloudy
37°F / 3°C 25°F / -4°C 60% 29.86 in
(1011 mb)
NW 20.7 mph
(NW 33 kph)
- 10SM
09:35
Partly Cloudy
37°F / 3°C 25°F / -4°C 60% 29.86 in
(1011 mb)
NW 21.9 mph
(NW 35 kph)
- 10SM
09:15
Partly Cloudy
37°F / 3°C 25°F / -4°C 60% 29.86 in
(1011 mb)
NW 24.2 mph
(NW 39 kph)
- 10SM
08:55
Partly Cloudy
36°F / 2°C 25°F / -4°C 65% 29.83 in
(1010 mb)
NNW 18.4 mph
(NNW 30 kph)
- 10SM
08:34
Clear
36°F / 2°C 25°F / -4°C 65% 29.83 in
(1010 mb)
NW 18.4 mph
(NW 30 kph)
- 10SM
08:15
Partly Cloudy
34°F / 1°C 25°F / -4°C 70% 29.83 in
(1010 mb)
NW 21.9 mph
(NW 35 kph)
- 10SM
07:55
Clear
34°F / 1°C 25°F / -4°C 70% 29.83 in
(1010 mb)
NW 17.3 mph
(NW 28 kph)
- 10SM
07:34
Partly Cloudy
34°F / 1°C 25°F / -4°C 70% 29.83 in
(1010 mb)
NW 20.7 mph
(NW 33 kph)
- 10SM
07:15
Partly Cloudy
32°F / 0°C 23°F / -5°C 69% 29.83 in
(1010 mb)
NW 19.6 mph
(NW 32 kph)
- 10SM
06:54
Partly Cloudy
32°F / 0°C 23°F / -5°C 69% 29.83 in
(1010 mb)
NW 18.4 mph
(NW 30 kph)
- 10SM
06:35
Partly Cloudy
30°F / -1°C 23°F / -5°C 75% 29.83 in
(1010 mb)
NW 19.6 mph
(NW 32 kph)
- 10SM
06:14
Clear
30°F / -1°C 23°F / -5°C 75% 29.83 in
(1010 mb)
NW 15 mph
(NW 24 kph)
- 10SM
05:55
Clear
30°F / -1°C 25°F / -4°C 80% 29.8 in
(1009 mb)
NW 13.8 mph
(NW 22 kph)
- 10SM
05:35
Partly Cloudy
30°F / -1°C 25°F / -4°C 80% 29.8 in
(1009 mb)
WNW 13.8 mph
(WNW 22 kph)
- 10SM
05:14
Mostly Cloudy
30°F / -1°C 25°F / -4°C 80% 29.8 in
(1009 mb)
NW 15 mph
(NW 24 kph)
- 10SM
04:55
Overcast
32°F / 0°C 25°F / -4°C 75% 29.8 in
(1009 mb)
WNW 13.8 mph
(WNW 22 kph)
- 10SM
04:35
Mostly Cloudy
32°F / 0°C 25°F / -4°C 75% 29.8 in
(1009 mb)
NW 17.3 mph
(NW 28 kph)
- 10SM
04:15
Overcast
32°F / 0°C 25°F / -4°C 75% 29.8 in
(1009 mb)
NW 17.3 mph
(NW 28 kph)
- 10SM
03:54
Overcast
32°F / 0°C 25°F / -4°C 75% 29.8 in
(1009 mb)
NW 16.1 mph
(NW 26 kph)
- 10SM
03:34
Overcast
32°F / 0°C 25°F / -4°C 75% 29.8 in
(1009 mb)
WNW 11.5 mph
(WNW 19 kph)
- 10SM
03:15
Overcast
32°F / 0°C 25°F / -4°C 75% 29.8 in
(1009 mb)
NW 13.8 mph
(NW 22 kph)
- 10SM
02:54
Overcast
32°F / 0°C 23°F / -5°C 69% 29.77 in
(1008 mb)
NW 12.7 mph
(NW 20 kph)
- 10SM
02:34
Overcast
32°F / 0°C 23°F / -5°C 69% 29.8 in
(1009 mb)
NW 12.7 mph
(NW 20 kph)
- 10SM
02:15
Overcast
32°F / 0°C 25°F / -4°C 75% 29.77 in
(1008 mb)
NW 10.4 mph
(NW 17 kph)
- 10SM
01:55
Overcast
32°F / 0°C 27°F / -3°C 80% 29.77 in
(1008 mb)
NW 10.4 mph
(NW 17 kph)
- 10SM
01:35
Overcast
32°F / 0°C 27°F / -3°C 80% 29.77 in
(1008 mb)
NNW 12.7 mph
(NNW 20 kph)
- 10SM
01:15
Overcast
32°F / 0°C 25°F / -4°C 75% 29.77 in
(1008 mb)
NW 15 mph
(NW 24 kph)
- 10SM
00:54
Overcast
32°F / 0°C 27°F / -3°C 80% 29.77 in
(1008 mb)
NW 16.1 mph
(NW 26 kph)
- 10SM
00:35
Overcast
32°F / 0°C 27°F / -3°C 80% 29.77 in
(1008 mb)
NW 13.8 mph
(NW 22 kph)
- 10SM
00:15
Overcast
32°F / 0°C 27°F / -3°C 80% 29.77 in
(1008 mb)
NW 15 mph
(NW 24 kph)
- 10SM
Time Weather Temperature Dewpoint Humidity Pressure Winds Precip Visibility


Weather for websites

WeatherForYou.com, LLC is not responsible for any damages or problems caused by this service. Current weather conditions are obtained from the closest station including government and personal stations which may have varying degrees of accuracy. Weather forecasts are derived from the NOAA NDFD. Like all things, this site belongs to Jesus Christ... He just trusts us to maintain it. If you have any questions or comments email webmaster@weatherforyou.com

Copyright © 2015, WeatherForYou.com LLC. All rights reserved.